Location: ????????
(55.3939°N, 37.4780°E)
Time: 07:44:21
(UTC+00:00)

Cosmos 1898 Rocket - Pass Details

Date: 14 April 2026
Orbit: 750 x 778 km, 74.0° (Epoch: 9 May)

Event Time Altitude Azimuth Distance (km) Brightness Sun altitude
Rises 17:06:28 0° 204° (SSW) 3,224 6.7 -5.2°
Reaches altitude 10° 17:08:50 10° 204° (SSW) 2,298 6.0 -5.5°
Maximum altitude 17:14:03 87° 119° (ESE) 769 3.5 -6.2°
Drops below altitude 10° 17:19:17 10° 28° (NNE) 2,296 6.0 -6.8°
Sets 17:21:39 0° 29° (NNE) 3,221 6.7 -7.1°
